Flag for Malaysia Weather past 2 weeks in Kuala Lumpur, Malaysia

Now
82 °F

Partly cloudy.


Feels Like: 89 °F
Forecast: 72 / 95 °F
Wind: 6 mph from Northwest

Location: Sultan Abdul Aziz Shah-Subang

Current Time: Feb 27, 2015 at 11:30:47 PM

Latest Report: Feb 27, 2015 at 11:00 PM


Visibility: 3 mi

Pressure: 29.83 "Hg

Humidity: 79%

Dew point: 75 °F

Location of Kuala LumpurLocation

Historic Weather in Kuala Lumpur — Graph

°F

Kuala Lumpur temperature yesterday

Maximum temperature yesterday: 93 °F (at 2:00 PM)
Minimum temperature yesterday: 75 °F (at 5:00 PM)
Average temperature yesterday: 81 °F

Past Weeks' High & Low Weather Summary

 TemperatureHumidityPressure
High95 °F (Feb 21, 3:00 PM)100% (Feb 19, 3:00 AM)29.95 "Hg (Feb 19, 3:00 AM)
Low73 °F (Feb 19, 12:00 AM)39% (Feb 21, 3:00 PM)29.71 "Hg (Feb 27, 4:00 PM)
Average84 °F74%29.83 "Hg
* Reported Feb 12 10:00 PM — Feb 27 10:00 PM, Kuala Lumpur, Weather by CustomWeather, © 2015

Note: Actual official high and low records may vary slightly from our data, if they occured in-between our weather recording intervals... More about our weather records

Advertising

Kuala Lumpur weather history for previous 24 hours

 ConditionsComfort  
Time TempWeatherWind HumidityBarometerVisibility
10:00 PM
Fri, Feb 27
82 °FPartly cloudy.3 mph84%29.83 "Hg3 mi
9:00 PM84 °FPartly cloudy.5 mph79%29.80 "Hg5 mi
8:00 PM84 °FBroken clouds.3 mph79%29.77 "Hg5 mi
7:00 PM84 °FBroken clouds.1 mph84%29.74 "Hg5 mi
6:00 PM82 °FThunderstorms. More clouds than sun.3 mph84%29.71 "Hg5 mi
5:00 PM86 °FThunderstorms. Broken clouds.9 mph84%29.71 "Hg4 mi
4:00 PM91 °FBroken clouds.8 mph63%29.71 "HgN/A
3:00 PM95 °FBroken clouds.3 mph53%29.74 "HgN/A
2:00 PM93 °FBroken clouds.5 mph59%29.77 "HgN/A
1:00 PM91 °FBroken clouds.3 mph59%29.80 "HgN/A
12:00 PM90 °FBroken clouds.2 mph67%29.83 "HgN/A
11:00 AM88 °FPartly sunny.3 mph66%29.86 "HgN/A
10:00 AM82 °FBroken clouds.3 mph79%29.86 "Hg5 mi
9:00 AM81 °FBroken clouds.3 mph84%29.83 "Hg3 mi
8:00 AM77 °FPartly cloudy.No wind94%29.80 "Hg1 mi
7:00 AM75 °FPartly cloudy.No wind94%29.80 "Hg1 mi
6:00 AM75 °FPartly cloudy.No wind94%29.77 "Hg2 mi
5:00 AM75 °FPartly cloudy.No wind100%29.77 "Hg2 mi
4:00 AM75 °FPassing clouds.No wind100%29.77 "Hg2 mi
3:00 AM77 °FPartly cloudy.No wind89%29.77 "Hg2 mi
2:00 AM77 °FPartly cloudy.1 mph94%29.80 "Hg2 mi
1:00 AM77 °FPartly cloudy.No wind94%29.80 "Hg2 mi
12:00 AM77 °FPartly cloudy.No wind94%29.83 "Hg2 mi
11:00 PM
Thu, Feb 26
77 °FPartly cloudy.1 mph94%29.83 "Hg2 mi
Weather by CustomWeather, © 2015

See weather overviewHow to use our weather pages